Time,TemperatureF,DewpointF,PressureIn,WindDirection,WindDirectionDegrees,WindSpeedMPH,WindSpeedGustMPH,Humidity,HourlyPrecipIn,Conditions,Clouds,dailyrainin,SoftwareType,DateUTC
2013-10-08 00:01:00,63.5,62.9,29.47,SW,225,0.0,0.0,98,0.12,,OVC049,0.00,VWS V14.01,2013-10-08 04:01:00,
2013-10-08 00:06:00,63.3,62.8,29.47,SW,224,0.0,0.0,98,0.08,,OVC049,0.00,VWS V14.01,2013-10-08 04:06:00,
2013-10-08 00:11:00,63.3,62.8,29.47,SW,230,0.0,0.0,98,0.08,,OVC049,0.00,VWS V14.01,2013-10-08 04:11:00,
2013-10-08 00:16:00,63.3,62.8,29.47,WSW,254,0.0,0.0,98,0.08,,OVC049,0.00,VWS V14.01,2013-10-08 04:16:00,
2013-10-08 00:21:00,63.1,62.6,29.47,WSW,247,0.0,0.0,98,0.04,,OVC049,0.00,VWS V14.01,2013-10-08 04:21:00,
2013-10-08 00:26:00,63.1,62.6,29.47,SW,220,0.0,0.0,98,0.00,,OVC049,0.00,VWS V14.01,2013-10-08 04:26:00,
2013-10-08 00:31:00,63.0,62.4,29.47,SW,235,0.0,0.0,98,0.00,,OVC049,0.00,VWS V14.01,2013-10-08 04:31:00,
2013-10-08 00:36:00,63.0,62.4,29.47,SW,220,0.0,0.0,98,0.00,,OVC049,0.00,VWS V14.01,2013-10-08 04:36:00,
2013-10-08 00:41:00,62.8,62.2,29.47,SW,230,0.0,2.7,98,0.00,,OVC049,0.00,VWS V14.01,2013-10-08 04:41:00,
2013-10-08 00:46:00,62.8,62.2,29.47,SW,234,0.0,0.0,98,0.00,,OVC049,0.00,VWS V14.01,2013-10-08 04:46:00,
2013-10-08 00:51:00,62.6,62.0,29.47,WSW,239,0.0,0.0,98,0.00,,OVC049,0.00,VWS V14.01,2013-10-08 04:51:00,
2013-10-08 00:56:00,62.6,62.0,29.47,SW,222,0.0,0.0,98,0.00,,OVC049,0.00,VWS V14.01,2013-10-08 04:56:00,
2013-10-08 01:01:00,62.4,61.8,29.47,WSW,245,0.0,0.0,98,0.00,,OVC042,0.00,VWS V14.01,2013-10-08 05:01:00,
2013-10-08 01:06:00,62.4,61.8,29.47,SW,232,0.0,2.7,98,0.00,,OVC042,0.00,VWS V14.01,2013-10-08 05:06:00,
2013-10-08 01:11:00,62.2,61.7,29.47,South,187,0.0,0.0,98,0.00,,OVC042,0.00,VWS V14.01,2013-10-08 05:11:00,
2013-10-08 01:16:00,62.2,61.7,29.47,SW,224,5.4,5.4,98,0.00,,OVC042,0.00,VWS V14.01,2013-10-08 05:16:00,
2013-10-08 01:21:00,61.9,61.3,29.47,WSW,257,0.0,0.0,98,0.00,,OVC042,0.00,VWS V14.01,2013-10-08 05:21:00,
2013-10-08 01:26:00,61.9,61.3,29.47,SW,235,0.0,0.0,98,0.00,,OVC042,0.00,VWS V14.01,2013-10-08 05:26:00,
2013-10-08 01:31:00,61.7,61.1,29.47,WSW,245,0.0,0.0,98,0.00,,OVC042,0.00,VWS V14.01,2013-10-08 05:31:00,
2013-10-08 01:36:00,61.7,61.1,29.47,West,269,6.3,6.3,98,0.00,,OVC042,0.00,VWS V14.01,2013-10-08 05:36:00,
2013-10-08 01:41:00,61.7,61.1,29.47,WSW,241,0.0,0.0,98,0.00,,OVC042,0.00,VWS V14.01,2013-10-08 05:41:00,
2013-10-08 01:46:00,61.5,61.0,29.47,WSW,246,0.0,0.0,98,0.00,,OVC042,0.00,VWS V14.01,2013-10-08 05:46:00,
2013-10-08 01:51:00,61.3,60.8,29.47,WSW,254,0.0,0.0,98,0.00,,OVC042,0.00,VWS V14.01,2013-10-08 05:51:00,
2013-10-08 01:56:00,61.3,60.8,29.47,WSW,243,0.0,0.0,98,0.00,,OVC042,0.00,VWS V14.01,2013-10-08 05:56:00,
2013-10-08 02:01:00,61.2,60.6,29.47,WSW,246,0.0,0.0,98,0.00,,OVC049,0.00,VWS V14.01,2013-10-08 06:01:00,
2013-10-08 02:06:00,61.2,60.6,29.47,WSW,248,0.0,0.0,98,0.00,,OVC049,0.00,VWS V14.01,2013-10-08 06:06:00,
2013-10-08 02:11:00,61.2,60.6,29.47,WSW,247,0.0,0.0,98,0.00,,OVC049,0.00,VWS V14.01,2013-10-08 06:11:00,
2013-10-08 02:16:00,61.2,60.6,29.47,WSW,256,0.0,0.0,98,0.00,,OVC049,0.00,VWS V14.01,2013-10-08 06:16:00,
2013-10-08 02:21:00,61.0,60.4,29.47,West,275,0.0,0.0,98,0.00,,OVC049,0.00,VWS V14.01,2013-10-08 06:21:00,
2013-10-08 02:26:00,61.0,60.4,29.47,WNW,284,0.0,0.0,98,0.00,,OVC049,0.00,VWS V14.01,2013-10-08 06:26:00,
2013-10-08 02:31:00,60.8,60.2,29.47,WSW,256,0.0,0.0,98,0.00,,OVC049,0.00,VWS V14.01,2013-10-08 06:31:00,
2013-10-08 02:36:00,60.8,60.2,29.47,SSW,204,0.0,0.0,98,0.00,,OVC049,0.00,VWS V14.01,2013-10-08 06:36:00,
2013-10-08 02:41:00,60.6,60.1,29.50,West,272,0.0,0.0,98,0.00,,OVC049,0.00,VWS V14.01,2013-10-08 06:41:00,
2013-10-08 02:46:00,60.4,59.9,29.50,West,276,0.0,0.0,98,0.00,,OVC049,0.00,VWS V14.01,2013-10-08 06:46:00,
2013-10-08 02:51:00,60.3,59.7,29.50,West,261,0.0,0.0,98,0.00,,OVC049,0.00,VWS V14.01,2013-10-08 06:51:00,
2013-10-08 02:56:00,60.1,59.5,29.50,West,275,0.0,0.0,98,0.00,,OVC049,0.00,VWS V14.01,2013-10-08 06:56:00,
2013-10-08 03:01:00,59.5,59.0,29.50,West,263,5.4,5.4,98,0.00,,FEW065,0.00,VWS V14.01,2013-10-08 07:01:00,
2013-10-08 03:06:00,59.0,58.4,29.50,West,263,0.0,0.0,98,0.00,,FEW065,0.00,VWS V14.01,2013-10-08 07:06:00,
2013-10-08 03:11:00,58.5,57.9,29.50,WSW,238,6.3,6.3,98,0.00,,FEW065,0.00,VWS V14.01,2013-10-08 07:11:00,
2013-10-08 03:16:00,58.1,57.5,29.50,West,271,0.0,0.0,98,0.00,,FEW065,0.00,VWS V14.01,2013-10-08 07:16:00,
2013-10-08 03:21:00,57.7,57.2,29.50,West,279,0.0,0.0,98,0.00,,FEW065,0.00,VWS V14.01,2013-10-08 07:21:00,
2013-10-08 03:26:00,57.6,57.0,29.50,West,279,0.0,0.0,98,0.00,,FEW065,0.00,VWS V14.01,2013-10-08 07:26:00,
2013-10-08 03:31:00,57.2,56.6,29.50,WSW,243,0.0,0.0,98,0.00,,FEW065,0.00,VWS V14.01,2013-10-08 07:31:00,
2013-10-08 03:36:00,57.0,56.5,29.50,WSW,253,0.0,0.0,98,0.00,,FEW065,0.00,VWS V14.01,2013-10-08 07:36:00,
2013-10-08 03:41:00,56.8,56.3,29.53,WSW,253,0.0,0.0,98,0.00,,FEW065,0.00,VWS V14.01,2013-10-08 07:41:00,
2013-10-08 03:46:00,56.7,56.1,29.53,WSW,253,0.0,0.0,98,0.00,,FEW065,0.00,VWS V14.01,2013-10-08 07:46:00,
2013-10-08 03:51:00,56.5,55.9,29.53,WSW,253,0.0,0.0,98,0.00,,FEW065,0.00,VWS V14.01,2013-10-08 07:51:00,
2013-10-08 03:56:00,56.3,55.8,29.53,SW,236,0.0,0.0,98,0.00,,FEW065,0.00,VWS V14.01,2013-10-08 07:56:00,
2013-10-08 04:01:00,55.9,55.4,29.53,SW,236,0.0,0.0,98,0.00,,CLR,0.00,VWS V14.01,2013-10-08 08:01:00,
2013-10-08 04:06:00,55.8,55.2,29.53,SW,236,0.0,0.0,98,0.00,,CLR,0.00,VWS V14.01,2013-10-08 08:06:00,
2013-10-08 04:11:00,55.6,55.0,29.53,SW,236,0.0,0.0,98,0.00,,CLR,0.00,VWS V14.01,2013-10-08 08:11:00,
2013-10-08 04:16:00,55.4,54.8,29.53,SW,236,0.0,0.0,98,0.00,,CLR,0.00,VWS V14.01,2013-10-08 08:16:00,
2013-10-08 04:21:00,55.0,54.5,29.53,WSW,243,0.0,0.0,98,0.00,,CLR,0.00,VWS V14.01,2013-10-08 08:21:00,
2013-10-08 04:26:00,54.7,54.1,29.53,WSW,243,0.0,0.0,98,0.00,,CLR,0.00,VWS V14.01,2013-10-08 08:26:00,
2013-10-08 04:31:00,54.5,54.0,29.53,WSW,247,0.0,0.0,98,0.00,,CLR,0.00,VWS V14.01,2013-10-08 08:31:00,
2013-10-08 04:36:00,54.3,53.8,29.53,WSW,247,0.0,0.0,98,0.00,,CLR,0.00,VWS V14.01,2013-10-08 08:36:00,
2013-10-08 04:41:00,54.1,53.6,29.56,WSW,247,0.0,0.0,98,0.00,,CLR,0.00,VWS V14.01,2013-10-08 08:41:00,
2013-10-08 04:46:00,53.8,53.2,29.56,WSW,247,0.0,0.0,98,0.00,,CLR,0.00,VWS V14.01,2013-10-08 08:46:00,
2013-10-08 04:51:00,53.6,53.0,29.56,WSW,253,0.0,0.0,98,0.00,,CLR,0.00,VWS V14.01,2013-10-08 08:51:00,
2013-10-08 04:56:00,53.4,52.9,29.56,WSW,253,0.0,0.0,98,0.00,,CLR,0.00,VWS V14.01,2013-10-08 08:56:00,
2013-10-08 05:01:00,53.1,52.5,29.56,WSW,253,0.0,0.0,98,0.00,,CLR,0.00,VWS V14.01,2013-10-08 09:01:00,
2013-10-08 05:06:00,52.9,52.3,29.56,WSW,253,0.0,0.0,98,0.00,,CLR,0.00,VWS V14.01,2013-10-08 09:06:00,
2013-10-08 05:11:00,52.9,52.3,29.56,WSW,253,0.0,0.0,98,0.00,,CLR,0.00,VWS V14.01,2013-10-08 09:11:00,
2013-10-08 05:16:00,52.7,52.2,29.56,WSW,253,0.0,0.0,98,0.00,,CLR,0.00,VWS V14.01,2013-10-08 09:16:00,
2013-10-08 05:21:00,52.5,52.0,29.56,WSW,258,0.0,0.0,98,0.00,,CLR,0.00,VWS V14.01,2013-10-08 09:21:00,
2013-10-08 05:26:00,52.5,52.0,29.59,WSW,258,0.0,0.0,98,0.00,,CLR,0.00,VWS V14.01,2013-10-08 09:26:00,
2013-10-08 05:31:00,52.3,51.8,29.59,West,267,0.0,0.0,98,0.00,,,0.00,VWS V14.01,2013-10-08 09:31:00,
2013-10-08 05:36:00,52.3,51.8,29.59,West,268,0.0,0.0,98,0.00,,,0.00,VWS V14.01,2013-10-08 09:36:00,
2013-10-08 05:41:00,52.2,51.6,29.59,West,263,0.0,0.0,98,0.00,,,0.00,VWS V14.01,2013-10-08 09:41:00,
2013-10-08 05:46:00,52.2,51.6,29.59,WSW,258,0.0,2.7,98,0.00,,,0.00,VWS V14.01,2013-10-08 09:46:00,
2013-10-08 05:51:00,52.0,51.4,29.59,WSW,250,0.0,0.0,98,0.00,,,0.00,VWS V14.01,2013-10-08 09:51:00,
2013-10-08 05:56:00,52.0,51.4,29.59,SW,231,0.0,0.0,98,0.00,,,0.00,VWS V14.01,2013-10-08 09:56:00,
2013-10-08 06:01:00,51.8,51.3,29.59,West,259,0.0,0.0,98,0.00,,,0.00,VWS V14.01,2013-10-08 10:01:00,
2013-10-08 06:06:00,51.6,51.1,29.59,West,260,0.0,0.0,98,0.00,,,0.00,VWS V14.01,2013-10-08 10:06:00,
2013-10-08 06:11:00,51.6,51.1,29.59,West,262,0.0,0.0,98,0.00,,CLR,0.00,VWS V14.01,2013-10-08 10:11:00,
2013-10-08 06:16:00,51.4,50.9,29.59,West,271,0.0,0.0,98,0.00,,CLR,0.00,VWS V14.01,2013-10-08 10:16:00,
2013-10-08 06:21:00,51.3,50.7,29.59,West,268,0.0,0.0,98,0.00,,CLR,0.00,VWS V14.01,2013-10-08 10:21:00,
2013-10-08 06:26:00,51.1,50.5,29.59,West,265,0.0,0.0,98,0.00,,CLR,0.00,VWS V14.01,2013-10-08 10:26:00,
2013-10-08 06:31:00,50.9,50.4,29.59,WNW,284,0.0,0.0,98,0.00,,CLR,0.00,VWS V14.01,2013-10-08 10:31:00,
2013-10-08 06:36:00,50.9,50.4,29.59,West,263,0.0,0.0,98,0.00,,CLR,0.00,VWS V14.01,2013-10-08 10:36:00,
2013-10-08 06:41:00,50.7,50.2,29.59,WSW,255,0.0,0.0,98,0.00,,CLR,0.00,VWS V14.01,2013-10-08 10:41:00,
2013-10-08 06:46:00,50.5,50.0,29.59,WSW,256,0.0,0.0,98,0.00,,CLR,0.00,VWS V14.01,2013-10-08 10:46:00,
2013-10-08 06:51:00,50.5,50.0,29.59,WSW,256,0.0,0.0,98,0.00,,CLR,0.00,VWS V14.01,2013-10-08 10:51:00,
2013-10-08 06:56:00,50.4,49.8,29.62,West,271,0.0,0.0,98,0.00,,CLR,0.00,VWS V14.01,2013-10-08 10:56:00,
2013-10-08 07:01:00,50.5,50.0,29.62,West,271,0.0,2.7,98,0.00,,,0.00,VWS V14.01,2013-10-08 11:01:00,
2013-10-08 07:06:00,50.7,50.2,29.62,West,263,4.5,4.5,98,0.00,,,0.00,VWS V14.01,2013-10-08 11:06:00,
2013-10-08 07:11:00,50.7,50.2,29.65,WNW,301,0.0,0.0,98,0.00,,,0.00,VWS V14.01,2013-10-08 11:11:00,
2013-10-08 07:16:00,50.9,50.4,29.65,WSW,251,0.0,0.0,98,0.00,,,0.00,VWS V14.01,2013-10-08 11:16:00,
2013-10-08 07:21:00,50.9,50.4,29.65,West,266,0.0,0.0,98,0.00,,,0.00,VWS V14.01,2013-10-08 11:21:00,
2013-10-08 07:26:00,50.9,50.4,29.65,WSW,250,0.0,2.7,98,0.00,,,0.00,VWS V14.01,2013-10-08 11:26:00,
2013-10-08 07:31:00,50.9,50.4,29.65,West,275,0.0,0.0,98,0.00,,,0.00,VWS V14.01,2013-10-08 11:31:00,
2013-10-08 07:36:00,50.7,50.2,29.65,SW,233,0.0,0.0,98,0.00,,,0.00,VWS V14.01,2013-10-08 11:36:00,
2013-10-08 07:41:00,50.9,50.4,29.68,WNW,290,0.0,2.2,98,0.00,,,0.00,VWS V14.01,2013-10-08 11:41:00,
2013-10-08 07:46:00,50.9,50.4,29.68,West,263,0.0,0.0,98,0.00,,,0.00,VWS V14.01,2013-10-08 11:46:00,
2013-10-08 07:51:00,51.1,50.5,29.68,WNW,299,0.0,0.0,98,0.00,,,0.00,VWS V14.01,2013-10-08 11:51:00,
2013-10-08 07:56:00,51.1,50.5,29.68,WNW,290,0.0,0.0,98,0.00,,,0.00,VWS V14.01,2013-10-08 11:56:00,
2013-10-08 08:01:00,51.3,50.7,29.68,WNW,284,0.0,0.0,98,0.00,,CLR,0.00,VWS V14.01,2013-10-08 12:01:00,
2013-10-08 08:06:00,51.4,50.9,29.68,NW,310,0.0,0.0,98,0.00,,CLR,0.00,VWS V14.01,2013-10-08 12:06:00,
2013-10-08 08:11:00,51.4,50.9,29.68,NNW,329,5.4,5.4,98,0.00,,CLR,0.00,VWS V14.01,2013-10-08 12:11:00,
2013-10-08 08:16:00,51.6,51.1,29.68,SW,234,11.6,11.6,98,0.00,,CLR,0.00,VWS V14.01,2013-10-08 12:16:00,
2013-10-08 08:21:00,50.5,50.0,29.68,SW,233,12.5,12.5,98,0.00,,CLR,0.00,VWS V14.01,2013-10-08 12:21:00,
2013-10-08 08:26:00,51.3,50.7,29.71,SW,228,0.0,0.0,98,0.00,,CLR,0.00,VWS V14.01,2013-10-08 12:26:00,
2013-10-08 08:31:00,50.9,50.4,29.71,WNW,292,0.0,0.0,98,0.00,,CLR,0.00,VWS V14.01,2013-10-08 12:31:00,
2013-10-08 08:36:00,51.1,50.5,29.71,West,262,0.0,0.0,98,0.00,,CLR,0.00,VWS V14.01,2013-10-08 12:36:00,
2013-10-08 08:41:00,50.9,50.4,29.71,SSE,168,5.4,5.4,98,0.00,,CLR,0.00,VWS V14.01,2013-10-08 12:41:00,
2013-10-08 08:46:00,50.9,48.7,29.71,SW,217,8.1,8.1,92,0.00,,CLR,0.00,VWS V14.01,2013-10-08 12:46:00,
2013-10-08 08:51:00,51.1,43.1,29.71,West,274,0.0,0.0,74,0.00,,CLR,0.00,VWS V14.01,2013-10-08 12:51:00,
2013-10-08 08:56:00,51.4,37.2,29.71,West,262,5.4,5.4,58,0.00,,CLR,0.00,VWS V14.01,2013-10-08 12:56:00,
2013-10-08 09:01:00,51.6,36.9,29.71,SW,232,14.3,14.3,57,0.00,,CLR,0.00,VWS V14.01,2013-10-08 13:01:00,
2013-10-08 09:06:00,51.8,37.1,29.71,SSW,208,4.5,4.5,57,0.00,,CLR,0.00,VWS V14.01,2013-10-08 13:06:00,
2013-10-08 09:11:00,52.0,36.3,29.74,West,274,0.0,0.0,55,0.00,,CLR,0.00,VWS V14.01,2013-10-08 13:11:00,
2013-10-08 09:16:00,52.2,36.0,29.74,West,262,6.3,6.3,54,0.00,,CLR,0.00,VWS V14.01,2013-10-08 13:16:00,
2013-10-08 09:21:00,52.3,36.2,29.74,NNE,20,0.0,0.0,54,0.00,,CLR,0.00,VWS V14.01,2013-10-08 13:21:00,
2013-10-08 09:26:00,52.5,36.4,29.74,WSW,256,6.3,6.3,54,0.00,,CLR,0.00,VWS V14.01,2013-10-08 13:26:00,
2013-10-08 09:31:00,52.7,35.6,29.74,WNW,292,5.4,6.3,52,0.00,,CLR,0.00,VWS V14.01,2013-10-08 13:31:00,
2013-10-08 09:36:00,52.9,36.2,29.74,WNW,288,7.2,8.1,53,0.00,,CLR,0.00,VWS V14.01,2013-10-08 13:36:00,
2013-10-08 09:41:00,53.1,34.9,29.74,WSW,257,7.2,7.2,50,0.00,,CLR,0.00,VWS V14.01,2013-10-08 13:41:00,
2013-10-08 09:46:00,53.1,34.9,29.74,WNW,292,5.4,5.4,50,0.00,,CLR,0.00,VWS V14.01,2013-10-08 13:46:00,
2013-10-08 09:51:00,53.2,35.1,29.74,WNW,294,5.4,5.8,50,0.00,,CLR,0.00,VWS V14.01,2013-10-08 13:51:00,
2013-10-08 09:56:00,53.4,35.3,29.74,ESE,114,0.0,2.7,50,0.00,,CLR,0.00,VWS V14.01,2013-10-08 13:56:00,
2013-10-08 10:01:00,53.6,35.9,29.74,West,266,0.0,2.7,51,0.00,,CLR,0.00,VWS V14.01,2013-10-08 14:01:00,
2013-10-08 10:06:00,53.8,36.1,29.74,WNW,292,0.0,4.0,51,0.00,,CLR,0.00,VWS V14.01,2013-10-08 14:06:00,
2013-10-08 10:11:00,54.1,36.4,29.77,North,0,0.0,0.0,51,0.00,,CLR,0.00,VWS V14.01,2013-10-08 14:11:00,
2013-10-08 10:16:00,54.5,37.2,29.77,SSW,207,8.1,8.1,52,0.00,,CLR,0.00,VWS V14.01,2013-10-08 14:16:00,
2013-10-08 10:21:00,55.0,36.2,29.77,West,267,5.4,5.4,49,0.00,,CLR,0.00,VWS V14.01,2013-10-08 14:21:00,
2013-10-08 10:26:00,55.2,36.4,29.77,NW,307,4.5,5.8,49,0.00,,CLR,0.00,VWS V14.01,2013-10-08 14:26:00,
2013-10-08 10:31:00,55.4,36.1,29.77,NW,308,5.4,5.4,48,0.00,,CLR,0.00,VWS V14.01,2013-10-08 14:31:00,
2013-10-08 10:36:00,55.9,36.0,29.77,NNW,342,5.4,5.4,47,0.00,,CLR,0.00,VWS V14.01,2013-10-08 14:36:00,
2013-10-08 10:41:00,56.3,36.9,29.77,West,279,16.1,16.1,48,0.00,,CLR,0.00,VWS V14.01,2013-10-08 14:41:00,
2013-10-08 10:46:00,56.8,36.3,29.77,NW,325,8.1,8.1,46,0.00,,CLR,0.00,VWS V14.01,2013-10-08 14:46:00,
2013-10-08 10:50:00,56.8,36.3,29.77,NNE,23,0.0,3.6,46,0.00,,CLR,0.00,VWS V14.01,2013-10-08 14:50:00,
2013-10-08 10:55:00,57.2,34.9,29.77,NW,311,0.0,0.0,43,0.00,,CLR,0.00,VWS V14.01,2013-10-08 14:55:00,
2013-10-08 11:00:00,57.4,35.1,29.77,NE,44,0.0,0.0,43,0.00,,CLR,0.00,VWS V14.01,2013-10-08 15:00:00,
2013-10-08 11:05:00,57.7,34.8,29.77,West,265,8.1,8.1,42,0.00,,CLR,0.00,VWS V14.01,2013-10-08 15:05:00,
2013-10-08 11:10:00,57.9,35.6,29.77,WNW,292,6.3,6.3,43,0.00,,CLR,0.00,VWS V14.01,2013-10-08 15:10:00,
2013-10-08 11:15:00,57.9,35.0,29.77,NNW,328,4.5,5.8,42,0.00,,CLR,0.00,VWS V14.01,2013-10-08 15:15:00,
2013-10-08 11:20:00,58.5,35.5,29.77,West,273,6.3,6.3,42,0.00,,CLR,0.00,VWS V14.01,2013-10-08 15:20:00,
2013-10-08 11:25:00,58.6,35.0,29.77,North,353,4.5,4.5,41,0.00,,CLR,0.00,VWS V14.01,2013-10-08 15:25:00,
2013-10-08 11:30:00,58.8,35.8,29.77,NW,319,5.4,5.4,42,0.00,,CLR,0.00,VWS V14.01,2013-10-08 15:30:00,
2013-10-08 11:35:00,58.8,35.2,29.77,WNW,284,10.7,10.7,41,0.00,,CLR,0.00,VWS V14.01,2013-10-08 15:35:00,
2013-10-08 11:40:00,58.6,34.4,29.77,NNW,333,0.0,0.0,40,0.00,,CLR,0.00,VWS V14.01,2013-10-08 15:40:00,
2013-10-08 11:45:00,58.6,35.6,29.77,West,281,6.3,6.3,42,0.00,,CLR,0.00,VWS V14.01,2013-10-08 15:45:00,
2013-10-08 11:50:00,58.8,36.4,29.77,WNW,286,0.0,0.0,43,0.00,,CLR,0.00,VWS V14.01,2013-10-08 15:50:00,
2013-10-08 11:55:00,59.2,35.5,29.77,WNW,287,5.4,5.4,41,0.00,,CLR,0.00,VWS V14.01,2013-10-08 15:55:00,
2013-10-08 12:00:00,59.2,35.5,29.77,SW,223,5.4,5.4,41,0.00,,CLR,0.00,VWS V14.01,2013-10-08 16:00:00,
2013-10-08 12:05:00,59.2,34.9,29.77,WNW,282,5.4,5.4,40,0.00,,CLR,0.00,VWS V14.01,2013-10-08 16:05:00,
2013-10-08 12:10:00,59.0,34.1,29.77,NW,322,5.4,5.4,39,0.00,,CLR,0.00,VWS V14.01,2013-10-08 16:10:00,
2013-10-08 12:15:00,59.0,34.7,29.80,West,268,6.3,6.3,40,0.00,,CLR,0.00,VWS V14.01,2013-10-08 16:15:00,
2013-10-08 12:20:00,58.6,34.4,29.80,WSW,249,12.5,12.5,40,0.00,,CLR,0.00,VWS V14.01,2013-10-08 16:20:00,
2013-10-08 12:25:00,58.5,34.9,29.80,NNE,17,0.0,0.0,41,0.00,,CLR,0.00,VWS V14.01,2013-10-08 16:25:00,
2013-10-08 12:30:00,58.8,35.2,29.80,NW,321,4.5,4.5,41,0.00,,CLR,0.00,VWS V14.01,2013-10-08 16:30:00,
2013-10-08 12:35:00,59.4,35.1,29.80,West,260,5.4,5.4,40,0.00,,CLR,0.00,VWS V14.01,2013-10-08 16:35:00,
2013-10-08 12:40:00,59.7,34.1,29.80,SW,232,0.0,2.7,38,0.00,,CLR,0.00,VWS V14.01,2013-10-08 16:40:00,
2013-10-08 12:45:00,59.4,33.8,29.80,WNW,282,0.0,0.0,38,0.00,,CLR,0.00,VWS V14.01,2013-10-08 16:45:00,
2013-10-08 12:50:00,59.7,36.0,29.80,NNE,31,6.3,6.3,41,0.00,,CLR,0.00,VWS V14.01,2013-10-08 16:50:00,
2013-10-08 12:55:00,59.7,35.4,29.80,West,267,10.7,10.7,40,0.00,,CLR,0.00,VWS V14.01,2013-10-08 16:55:00,
2013-10-08 13:00:00,59.4,34.4,29.80,NNW,338,0.0,0.0,39,0.00,,CLR,0.00,VWS V14.01,2013-10-08 17:00:00,
2013-10-08 13:06:00,59.7,36.6,29.80,NW,317,5.4,5.4,42,0.00,,CLR,0.00,VWS V14.01,2013-10-08 17:06:00,
2013-10-08 13:11:00,59.5,35.2,29.80,WNW,300,0.0,2.2,40,0.00,,CLR,0.00,VWS V14.01,2013-10-08 17:11:00,
2013-10-08 13:16:00,59.4,34.4,29.80,NE,35,0.0,0.0,39,0.00,,CLR,0.00,VWS V14.01,2013-10-08 17:16:00,
2013-10-08 13:21:00,59.5,35.2,29.80,West,266,0.0,0.0,40,0.00,,CLR,0.00,VWS V14.01,2013-10-08 17:21:00,
2013-10-08 13:25:00,59.7,36.0,29.80,NNE,32,9.8,9.8,41,0.00,,CLR,0.00,VWS V14.01,2013-10-08 17:25:00,
2013-10-08 13:30:00,59.9,36.8,29.80,NNE,24,0.0,0.0,42,0.00,,CLR,0.00,VWS V14.01,2013-10-08 17:30:00,
2013-10-08 13:35:00,59.9,35.5,29.80,NE,46,4.5,4.5,40,0.00,,CLR,0.00,VWS V14.01,2013-10-08 17:35:00,
2013-10-08 13:40:00,59.7,34.7,29.80,NNW,335,4.5,4.5,39,0.00,,CLR,0.00,VWS V14.01,2013-10-08 17:40:00,
2013-10-08 13:45:00,59.4,34.4,29.80,SW,222,0.0,0.0,39,0.00,,CLR,0.00,VWS V14.01,2013-10-08 17:45:00,
2013-10-08 13:50:00,59.2,34.3,29.80,NW,324,0.0,0.0,39,0.00,,CLR,0.00,VWS V14.01,2013-10-08 17:50:00,
2013-10-08 13:55:00,59.2,33.6,29.80,NE,47,0.0,2.7,38,0.00,,CLR,0.00,VWS V14.01,2013-10-08 17:55:00,
2013-10-08 14:00:00,59.4,33.8,29.80,WNW,295,5.4,5.4,38,0.00,,CLR,0.00,VWS V14.01,2013-10-08 18:00:00,
2013-10-08 14:05:00,59.2,34.3,29.80,West,280,0.0,2.7,39,0.00,,CLR,0.00,VWS V14.01,2013-10-08 18:05:00,
2013-10-08 14:10:00,59.2,34.3,29.80,NE,34,0.0,0.0,39,0.00,,CLR,0.00,VWS V14.01,2013-10-08 18:10:00,
2013-10-08 14:15:00,59.2,34.3,29.80,North,6,0.0,0.0,39,0.00,,CLR,0.00,VWS V14.01,2013-10-08 18:15:00,
2013-10-08 14:20:00,59.2,34.3,29.80,WNW,287,5.4,5.4,39,0.00,,CLR,0.00,VWS V14.01,2013-10-08 18:20:00,
2013-10-08 14:25:00,59.2,33.6,29.80,WNW,293,0.0,0.0,38,0.00,,CLR,0.00,VWS V14.01,2013-10-08 18:25:00,
2013-10-08 14:30:00,59.2,34.3,29.80,West,269,0.0,3.6,39,0.00,,CLR,0.00,VWS V14.01,2013-10-08 18:30:00,
2013-10-08 14:35:00,59.2,34.3,29.80,SW,236,5.4,5.4,39,0.00,,CLR,0.00,VWS V14.01,2013-10-08 18:35:00,
2013-10-08 14:40:00,59.4,33.1,29.80,WNW,287,0.0,0.0,37,0.00,,CLR,0.00,VWS V14.01,2013-10-08 18:40:00,
2013-10-08 14:45:00,59.5,33.9,29.83,NNW,330,0.0,0.0,38,0.00,,CLR,0.00,VWS V14.01,2013-10-08 18:45:00,
2013-10-08 14:50:00,59.7,33.4,29.83,SW,220,9.8,9.8,37,0.00,,CLR,0.00,VWS V14.01,2013-10-08 18:50:00,
2013-10-08 14:55:00,59.7,34.1,29.83,WNW,286,0.0,0.0,38,0.00,,CLR,0.00,VWS V14.01,2013-10-08 18:55:00,
2013-10-08 15:00:00,59.7,34.1,29.83,NNW,330,0.0,3.6,38,0.00,,CLR,0.00,VWS V14.01,2013-10-08 19:00:00,
2013-10-08 15:05:00,59.7,33.4,29.83,NW,318,0.0,5.4,37,0.00,,CLR,0.00,VWS V14.01,2013-10-08 19:05:00,
2013-10-08 15:10:00,59.7,34.1,29.83,NW,309,0.0,0.0,38,0.00,,CLR,0.00,VWS V14.01,2013-10-08 19:10:00,
2013-10-08 15:15:00,59.7,34.1,29.83,NNE,26,0.0,0.0,38,0.00,,CLR,0.00,VWS V14.01,2013-10-08 19:15:00,
2013-10-08 15:20:00,59.5,33.3,29.83,WNW,284,5.4,5.4,37,0.00,,CLR,0.00,VWS V14.01,2013-10-08 19:20:00,
2013-10-08 15:25:00,59.5,33.3,29.83,NNE,30,0.0,0.0,37,0.00,,CLR,0.00,VWS V14.01,2013-10-08 19:25:00,
2013-10-08 15:30:00,59.5,33.3,29.83,NNE,17,0.0,0.0,37,0.00,,CLR,0.00,VWS V14.01,2013-10-08 19:30:00,
2013-10-08 15:35:00,59.5,33.9,29.83,ESE,104,0.0,0.0,38,0.00,,CLR,0.00,VWS V14.01,2013-10-08 19:35:00,
2013-10-08 15:40:00,59.4,33.1,29.83,WSW,239,8.1,8.1,37,0.00,,CLR,0.00,VWS V14.01,2013-10-08 19:40:00,
2013-10-08 15:45:00,59.2,33.0,29.83,NW,304,6.3,6.3,37,0.00,,CLR,0.00,VWS V14.01,2013-10-08 19:45:00,
2013-10-08 15:50:00,59.2,33.0,29.83,NNW,333,4.5,4.5,37,0.00,,CLR,0.00,VWS V14.01,2013-10-08 19:50:00,
2013-10-08 15:55:00,59.2,33.0,29.83,WSW,248,0.0,0.0,37,0.00,,CLR,0.00,VWS V14.01,2013-10-08 19:55:00,
2013-10-08 16:00:00,59.2,33.0,29.83,NE,43,0.0,3.1,37,0.00,,CLR,0.00,VWS V14.01,2013-10-08 20:00:00,
2013-10-08 16:05:00,59.0,32.1,29.83,NNE,26,0.0,2.2,36,0.00,,CLR,0.00,VWS V14.01,2013-10-08 20:05:00,
2013-10-08 16:10:00,58.8,32.6,29.83,WSW,258,5.4,5.4,37,0.00,,CLR,0.00,VWS V14.01,2013-10-08 20:10:00,
2013-10-08 16:15:00,58.8,32.6,29.83,West,269,6.3,6.3,37,0.00,,CLR,0.00,VWS V14.01,2013-10-08 20:15:00,
2013-10-08 16:20:00,58.8,33.3,29.83,NW,313,0.0,0.0,38,0.00,,CLR,0.00,VWS V14.01,2013-10-08 20:20:00,
2013-10-08 16:25:00,58.5,33.0,29.83,NW,310,0.0,0.0,38,0.00,,CLR,0.00,VWS V14.01,2013-10-08 20:25:00,
2013-10-08 16:30:00,58.3,32.8,29.85,NW,310,0.0,0.0,38,0.00,,CLR,0.00,VWS V14.01,2013-10-08 20:30:00,
2013-10-08 16:35:00,58.1,32.7,29.85,NW,321,0.0,0.0,38,0.00,,CLR,0.00,VWS V14.01,2013-10-08 20:35:00,
2013-10-08 16:40:00,57.9,32.5,29.85,WNW,301,4.5,4.5,38,0.00,,CLR,0.00,VWS V14.01,2013-10-08 20:40:00,
2013-10-08 16:45:00,57.7,33.0,29.85,NNE,12,0.0,0.0,39,0.00,,CLR,0.00,VWS V14.01,2013-10-08 20:45:00,
2013-10-08 16:50:00,57.6,32.2,29.85,West,270,0.0,0.0,38,0.00,,CLR,0.00,VWS V14.01,2013-10-08 20:50:00,
2013-10-08 16:55:00,57.6,32.2,29.85,West,277,0.0,0.0,38,0.00,,CLR,0.00,VWS V14.01,2013-10-08 20:55:00,
2013-10-08 17:00:00,57.4,32.7,29.85,NW,306,0.0,2.2,39,0.00,,CLR,0.00,VWS V14.01,2013-10-08 21:00:00,
2013-10-08 17:05:00,57.0,33.0,29.85,NNW,348,0.0,0.0,40,0.00,,CLR,0.00,VWS V14.01,2013-10-08 21:05:00,
2013-10-08 17:10:00,56.8,32.2,29.85,North,0,4.5,4.5,39,0.00,,CLR,0.00,VWS V14.01,2013-10-08 21:10:00,
2013-10-08 17:15:00,56.7,31.4,29.85,NNE,24,0.0,0.0,38,0.00,,CLR,0.00,VWS V14.01,2013-10-08 21:15:00,
2013-10-08 17:20:00,56.3,31.7,29.85,NW,319,0.0,0.0,39,0.00,,CLR,0.00,VWS V14.01,2013-10-08 21:20:00,
2013-10-08 17:25:00,55.9,31.4,29.88,NW,318,0.0,0.0,39,0.00,,CLR,0.00,VWS V14.01,2013-10-08 21:25:00,
2013-10-08 17:30:00,55.8,31.2,29.88,NW,326,0.0,0.0,39,0.00,,CLR,0.00,VWS V14.01,2013-10-08 21:30:00,
2013-10-08 17:35:00,55.6,30.4,29.88,North,350,0.0,0.0,38,0.00,,CLR,0.00,VWS V14.01,2013-10-08 21:35:00,
2013-10-08 17:40:00,55.4,30.9,29.88,NE,56,0.0,0.0,39,0.00,,CLR,0.00,VWS V14.01,2013-10-08 21:40:00,
2013-10-08 17:45:00,55.0,31.2,29.88,NE,49,0.0,0.0,40,0.00,,CLR,0.00,VWS V14.01,2013-10-08 21:45:00,
2013-10-08 17:50:00,54.5,30.7,29.88,NE,45,0.0,0.0,40,0.00,,CLR,0.00,VWS V14.01,2013-10-08 21:50:00,
2013-10-08 17:55:00,54.1,31.0,29.88,NW,315,0.0,0.0,41,0.00,,CLR,0.00,VWS V14.01,2013-10-08 21:55:00,
2013-10-08 18:00:00,53.8,30.6,29.88,WNW,296,0.0,0.0,41,0.00,,CLR,0.00,VWS V14.01,2013-10-08 22:00:00,
2013-10-08 18:05:00,53.6,29.9,29.88,WNW,299,0.0,0.0,40,0.00,,CLR,0.00,VWS V14.01,2013-10-08 22:05:00,
2013-10-08 18:10:00,53.2,30.2,29.91,NW,308,0.0,0.0,41,0.00,,CLR,0.00,VWS V14.01,2013-10-08 22:10:00,
2013-10-08 18:15:00,52.9,30.4,29.91,NW,308,0.0,0.0,42,0.00,,CLR,0.00,VWS V14.01,2013-10-08 22:15:00,
2013-10-08 18:20:00,52.5,30.1,29.91,NW,308,0.0,0.0,42,0.00,,CLR,0.00,VWS V14.01,2013-10-08 22:20:00,
2013-10-08 18:25:00,52.2,29.8,29.91,NW,308,0.0,0.0,42,0.00,,CLR,0.00,VWS V14.01,2013-10-08 22:25:00,
2013-10-08 18:30:00,51.8,30.0,29.91,NW,308,0.0,0.0,43,0.00,,CLR,0.00,VWS V14.01,2013-10-08 22:30:00,
2013-10-08 18:35:00,51.4,30.3,29.91,NW,308,0.0,0.0,44,0.00,,CLR,0.00,VWS V14.01,2013-10-08 22:35:00,
2013-10-08 18:40:00,51.3,30.1,29.91,NW,308,0.0,0.0,44,0.00,,CLR,0.00,VWS V14.01,2013-10-08 22:40:00,
2013-10-08 18:45:00,50.9,30.3,29.91,NW,308,0.0,0.0,45,0.00,,CLR,0.00,VWS V14.01,2013-10-08 22:45:00,
2013-10-08 18:50:00,50.5,30.5,29.91,NW,308,0.0,0.0,46,0.00,,CLR,0.00,VWS V14.01,2013-10-08 22:50:00,
2013-10-08 18:55:00,50.4,30.4,29.91,NW,308,0.0,0.0,46,0.00,,CLR,0.00,VWS V14.01,2013-10-08 22:55:00,
2013-10-08 19:00:00,50.0,30.6,29.91,NW,308,0.0,0.0,47,0.00,,CLR,0.00,VWS V14.01,2013-10-08 23:00:00,
2013-10-08 19:05:00,49.8,30.9,29.91,NW,308,0.0,0.0,48,0.00,,CLR,0.00,VWS V14.01,2013-10-08 23:05:00,
2013-10-08 19:10:00,49.6,30.8,29.91,NW,308,0.0,0.0,48,0.00,,CLR,0.00,VWS V14.01,2013-10-08 23:10:00,
2013-10-08 19:15:00,49.5,30.6,29.91,NW,308,0.0,0.0,48,0.00,,CLR,0.00,VWS V14.01,2013-10-08 23:15:00,
2013-10-08 19:20:00,49.3,31.0,29.91,NW,308,0.0,0.0,49,0.00,,CLR,0.00,VWS V14.01,2013-10-08 23:20:00,
2013-10-08 19:25:00,49.1,31.3,29.91,NW,308,0.0,0.0,50,0.00,,CLR,0.00,VWS V14.01,2013-10-08 23:25:00,
2013-10-08 19:30:00,48.7,31.4,29.91,NW,316,0.0,0.0,51,0.00,,CLR,0.00,VWS V14.01,2013-10-08 23:30:00,
2013-10-08 19:35:00,48.7,31.9,29.91,NW,316,0.0,0.0,52,0.00,,CLR,0.00,VWS V14.01,2013-10-08 23:35:00,
2013-10-08 19:40:00,48.7,31.4,29.91,North,11,0.0,0.0,51,0.00,,CLR,0.00,VWS V14.01,2013-10-08 23:40:00,
2013-10-08 19:45:00,49.1,31.8,29.91,NW,304,0.0,0.0,51,0.00,,CLR,0.00,VWS V14.01,2013-10-08 23:45:00,
2013-10-08 19:50:00,49.3,31.5,29.91,NNW,345,0.0,0.0,50,0.00,,CLR,0.00,VWS V14.01,2013-10-08 23:50:00,
2013-10-08 19:55:00,49.3,31.5,29.91,NNW,345,0.0,0.0,50,0.00,,CLR,0.00,VWS V14.01,2013-10-08 23:55:00,
2013-10-08 20:00:00,49.3,31.5,29.94,NNW,345,0.0,0.0,50,0.00,,CLR,0.00,VWS V14.01,2013-10-09 00:00:00,
2013-10-08 20:05:00,49.3,31.5,29.94,NNW,345,0.0,0.0,50,0.00,,CLR,0.00,VWS V14.01,2013-10-09 00:05:00,
2013-10-08 20:10:00,49.3,31.0,29.94,NNW,345,0.0,0.0,49,0.00,,CLR,0.00,VWS V14.01,2013-10-09 00:10:00,
2013-10-08 20:15:00,49.1,30.8,29.94,NNW,345,0.0,0.0,49,0.00,,CLR,0.00,VWS V14.01,2013-10-09 00:15:00,
2013-10-08 20:20:00,48.9,31.1,29.94,NNW,345,0.0,0.0,50,0.00,,CLR,0.00,VWS V14.01,2013-10-09 00:20:00,
2013-10-08 20:25:00,48.7,31.4,29.94,NNW,345,0.0,0.0,51,0.00,,CLR,0.00,VWS V14.01,2013-10-09 00:25:00,
2013-10-08 20:30:00,48.4,31.1,29.94,NNW,345,0.0,0.0,51,0.00,,CLR,0.00,VWS V14.01,2013-10-09 00:30:00,
2013-10-08 20:35:00,48.2,30.9,29.94,NNW,345,0.0,0.0,51,0.00,,CLR,0.00,VWS V14.01,2013-10-09 00:35:00,
2013-10-08 20:40:00,47.8,31.1,29.94,NNW,345,0.0,0.0,52,0.00,,CLR,0.00,VWS V14.01,2013-10-09 00:40:00,
2013-10-08 20:45:00,47.5,30.8,29.94,NNW,345,0.0,0.0,52,0.00,,CLR,0.00,VWS V14.01,2013-10-09 00:45:00,
2013-10-08 20:50:00,47.3,31.0,29.94,NNW,345,0.0,0.0,53,0.00,,CLR,0.00,VWS V14.01,2013-10-09 00:50:00,
2013-10-08 20:55:00,46.9,30.7,29.94,NNW,345,0.0,0.0,53,0.00,,CLR,0.00,VWS V14.01,2013-10-09 00:55:00,
2013-10-08 21:00:00,46.8,31.0,29.94,NNW,345,0.0,0.0,54,0.00,,CLR,0.00,VWS V14.01,2013-10-09 01:00:00,
2013-10-08 21:05:00,46.6,30.8,29.94,NNW,345,0.0,0.0,54,0.00,,CLR,0.00,VWS V14.01,2013-10-09 01:05:00,
2013-10-08 21:10:00,46.4,31.1,29.94,NNW,345,0.0,0.0,55,0.00,,CLR,0.00,VWS V14.01,2013-10-09 01:10:00,
2013-10-08 21:15:00,46.2,31.4,29.94,NNW,345,0.0,0.0,56,0.00,,CLR,0.00,VWS V14.01,2013-10-09 01:15:00,
2013-10-08 21:20:00,45.9,31.1,29.94,NNW,345,0.0,0.0,56,0.00,,CLR,0.00,VWS V14.01,2013-10-09 01:20:00,
2013-10-08 21:25:00,45.7,31.3,29.94,NNW,345,0.0,0.0,57,0.00,,CLR,0.00,VWS V14.01,2013-10-09 01:25:00,
2013-10-08 21:30:00,45.5,31.6,29.94,NNW,345,0.0,0.0,58,0.00,,CLR,0.00,VWS V14.01,2013-10-09 01:30:00,
2013-10-08 21:35:00,45.3,31.4,29.94,NNW,345,0.0,0.0,58,0.00,,CLR,0.00,VWS V14.01,2013-10-09 01:35:00,
2013-10-08 21:40:00,45.3,31.9,29.94,NNW,345,0.0,0.0,59,0.00,,CLR,0.00,VWS V14.01,2013-10-09 01:40:00,
2013-10-08 21:45:00,45.1,32.1,29.97,NNW,345,0.0,0.0,60,0.00,,CLR,0.00,VWS V14.01,2013-10-09 01:45:00,
2013-10-08 21:50:00,45.0,31.9,29.97,NNW,345,0.0,0.0,60,0.00,,CLR,0.00,VWS V14.01,2013-10-09 01:50:00,
2013-10-08 21:55:00,44.8,32.2,29.97,NNW,345,0.0,0.0,61,0.00,,CLR,0.00,VWS V14.01,2013-10-09 01:55:00,
2013-10-08 22:00:00,44.6,32.4,29.97,NNW,345,0.0,0.0,62,0.00,,CLR,0.00,VWS V14.01,2013-10-09 02:00:00,
2013-10-08 22:05:00,44.4,32.6,29.97,NNW,345,0.0,0.0,63,0.00,,CLR,0.00,VWS V14.01,2013-10-09 02:05:00,
2013-10-08 22:10:00,44.1,32.3,29.97,NNW,345,0.0,0.0,63,0.00,,CLR,0.00,VWS V14.01,2013-10-09 02:10:00,
2013-10-08 22:15:00,43.9,32.1,29.97,NNW,345,0.0,0.0,63,0.00,,CLR,0.00,VWS V14.01,2013-10-09 02:15:00,
2013-10-08 22:20:00,43.7,32.3,29.97,NNW,345,0.0,0.0,64,0.00,,CLR,0.00,VWS V14.01,2013-10-09 02:20:00,
2013-10-08 22:25:00,43.5,32.5,29.97,NNW,345,0.0,0.0,65,0.00,,CLR,0.00,VWS V14.01,2013-10-09 02:25:00,
2013-10-08 22:30:00,43.5,32.5,29.97,NNW,345,0.0,0.0,65,0.00,,CLR,0.00,VWS V14.01,2013-10-09 02:30:00,
2013-10-08 22:35:00,43.3,32.4,29.97,NNW,345,0.0,0.0,65,0.00,,CLR,0.00,VWS V14.01,2013-10-09 02:35:00,
2013-10-08 22:40:00,43.0,32.4,29.97,NNW,345,0.0,0.0,66,0.00,,CLR,0.00,VWS V14.01,2013-10-09 02:40:00,
2013-10-08 22:45:00,42.8,32.2,30.00,NNW,345,0.0,0.0,66,0.00,,CLR,0.00,VWS V14.01,2013-10-09 02:45:00,
2013-10-08 22:50:00,42.4,32.3,30.00,NNW,345,0.0,0.0,67,0.00,,CLR,0.00,VWS V14.01,2013-10-09 02:50:00,
2013-10-08 22:55:00,42.3,32.5,30.00,NNW,345,0.0,0.0,68,0.00,,CLR,0.00,VWS V14.01,2013-10-09 02:55:00,
2013-10-08 23:00:00,42.1,32.3,30.00,NNW,345,0.0,0.0,68,0.00,,CLR,0.00,VWS V14.01,2013-10-09 03:00:00,
2013-10-08 23:05:00,42.1,32.7,30.00,NNW,345,0.0,0.0,69,0.00,,CLR,0.00,VWS V14.01,2013-10-09 03:05:00,
2013-10-08 23:10:00,42.1,32.7,30.00,NNW,345,0.0,0.0,69,0.00,,CLR,0.00,VWS V14.01,2013-10-09 03:10:00,
2013-10-08 23:15:00,42.1,33.0,30.00,NNW,345,0.0,0.0,70,0.00,,CLR,0.00,VWS V14.01,2013-10-09 03:15:00,
2013-10-08 23:20:00,42.1,33.0,30.00,NNW,345,0.0,0.0,70,0.00,,CLR,0.00,VWS V14.01,2013-10-09 03:20:00,
2013-10-08 23:25:00,41.9,33.2,30.00,NNW,345,0.0,0.0,71,0.00,,CLR,0.00,VWS V14.01,2013-10-09 03:25:00,
2013-10-08 23:30:00,41.7,33.0,30.00,NNW,345,0.0,0.0,71,0.00,,CLR,0.00,VWS V14.01,2013-10-09 03:30:00,
2013-10-08 23:35:00,41.7,33.4,30.00,NNW,345,0.0,0.0,72,0.00,,CLR,0.00,VWS V14.01,2013-10-09 03:35:00,
2013-10-08 23:40:00,41.7,33.4,30.00,NNW,345,0.0,0.0,72,0.00,,CLR,0.00,VWS V14.01,2013-10-09 03:40:00,
2013-10-08 23:45:00,41.7,33.4,30.00,NNW,345,0.0,0.0,72,0.00,,CLR,0.00,VWS V14.01,2013-10-09 03:45:00,
2013-10-08 23:50:00,41.7,33.7,30.00,NNW,345,0.0,0.0,73,0.00,,CLR,0.00,VWS V14.01,2013-10-09 03:50:00,
2013-10-08 23:55:00,41.5,33.5,30.00,NNW,345,0.0,0.0,73,0.00,,CLR,0.00,VWS V14.01,2013-10-09 03:55:00,